Terminal Aerodrome Forecast
Issued by NWS

Home | Current Version | Previous Version | Text Only | Print | Product List | Glossary On
Versions: 1 2 3 4 5 6 7 8 9 10 11 12 13 14 15 16 17 18 19 20 21
000
FTUS43 KMQT 281131
TAFIWD
TAF
KIWD 281131Z 2812/2912 00000KT P6SM SKC
     FM281800 22006KT P6SM SKC
     FM290100 20010G17KT P6SM FEW150 WS015/21035KT
     FM290500 20015G25KT P6SM BKN140 WS015/21050KT
      AMD LTD TO CLD VIS AND WIND=

USA.gov is the U.S. government's official web portal to all federal, state and local government web resources and services.